| time (UTC) | temp F | wind direction | speed MPH | gust MPH | rain 1hr in | rain 24hr in | rain mn in | humidity % | barometer mb |
| 20260506084525 | 55 | 72 | 2.0 | 5.0 | 0.00 | 0.01 | 0.00 | 86 | 1017.0 |
| 20260506084028 | 55 | 62 | 2.0 | 4.0 | 0.00 | 0.01 | 0.00 | 86 | 1017.1 |
| 20260506083534 | 55 | 62 | 2.0 | 4.0 | 0.00 | 0.01 | 0.00 | 86 | 1017.2 |
| 20260506083035 | 55 | 62 | 2.0 | 4.0 | 0.00 | 0.01 | 0.00 | 86 | 1017.2 |
| 20260506082539 | 55 | 62 | 2.0 | 3.0 | 0.00 | 0.01 | 0.00 | 86 | 1017.2 |
| 20260506082047 | 55 | 62 | 2.0 | 4.0 | 0.00 | 0.01 | 0.00 | 85 | 1017.2 |
| 20260506081530 | 56 | 62 | 2.0 | 4.0 | 0.00 | 0.01 | 0.00 | 85 | 1017.3 |
| 20260506081031 | 56 | 54 | 2.0 | 4.0 | 0.00 | 0.01 | 0.00 | 85 | 1017.3 |
| 20260506080536 | 56 | 19 | 2.0 | 4.0 | 0.00 | 0.01 | 0.00 | 85 | 1017.3 |
| 20260506073036 | 57 | 284 | 1.0 | 2.0 | 0.00 | 0.01 | 0.00 | 84 | 1017.5 |
| 20260506072542 | 57 | 284 | 1.0 | 2.0 | 0.00 | 0.01 | 0.00 | 84 | 1017.5 |
| 20260506072023 | 57 | 284 | 1.0 | 2.0 | 0.00 | 0.01 | 0.00 | 84 | 1017.5 |
| 20260506071546 | 57 | 284 | 1.0 | 2.0 | 0.00 | 0.01 | 0.00 | 84 | 1017.6 |
| 20260506071027 | 57 | 284 | 1.0 | 2.0 | 0.00 | 0.01 | 0.00 | 83 | 1017.5 |
| 20260506070530 | 57 | 284 | 1.0 | 2.0 | 0.00 | 0.01 | 0.01 | 83 | 1017.5 |
| 20260506062038 | 59 | 284 | 1.0 | 2.0 | 0.00 | 0.01 | 0.01 | 81 | 1017.0 |
| 20260506061520 | 59 | 284 | 0.0 | 2.0 | 0.00 | 0.01 | 0.01 | 81 | 1017.1 |
| 20260506061019 | 59 | 284 | 0.0 | 1.0 | 0.00 | 0.01 | 0.01 | 81 | 1017.1 |
| 20260506060519 | 59 | 284 | 0.0 | 1.0 | 0.00 | 0.01 | 0.01 | 80 | 1017.2 |
| 20260506051042 | 60 | 284 | 0.0 | 3.0 | 0.00 | 0.01 | 0.01 | 78 | 1016.8 |
| 20260506050519 | 60 | 286 | 0.0 | 2.0 | 0.00 | 0.02 | 0.01 | 78 | 1016.8 |
| 20260506045021 | 60 | 286 | 1.0 | 3.0 | 0.00 | 0.02 | 0.01 | 77 | 1016.6 |
| 20260506044522 | 61 | 287 | 1.0 | 2.0 | 0.00 | 0.02 | 0.01 | 77 | 1016.6 |
| 20260506044026 | 61 | 287 | 1.0 | 3.0 | 0.00 | 0.02 | 0.01 | 76 | 1016.5 |
| 20260506043527 | 61 | 287 | 0.0 | 3.0 | 0.00 | 0.02 | 0.01 | 76 | 1016.4 |
| 20260506043028 | 61 | 287 | 1.0 | 4.0 | 0.00 | 0.02 | 0.01 | 76 | 1016.4 |
| 20260506042532 | 61 | 287 | 1.0 | 4.0 | 0.00 | 0.02 | 0.01 | 76 | 1016.3 |
| 20260506042037 | 61 | 288 | 2.0 | 4.0 | 0.00 | 0.02 | 0.01 | 76 | 1016.3 |
| 20260506041600 | 61 | 277 | 1.0 | 3.0 | 0.00 | 0.02 | 0.01 | 76 | 1016.3 |
| 20260506041027 | 61 | 272 | 0.0 | 4.0 | 0.00 | 0.02 | 0.01 | 76 | 1016.2 |
| 20260506040525 | 61 | 271 | 1.0 | 4.0 | 0.00 | 0.02 | 0.01 | 76 | 1016.2 |
| 20260506035521 | 61 | 271 | 2.0 | 3.0 | 0.00 | 0.02 | 0.01 | 75 | 1016.1 |
| 20260506035051 | 61 | 266 | 1.0 | 3.0 | 0.00 | 0.02 | 0.01 | 75 | 1016.0 |
| 20260506034536 | 61 | 267 | 2.0 | 4.0 | 0.00 | 0.02 | 0.01 | 75 | 1015.9 |
| 20260506034025 | 61 | 266 | 1.0 | 4.0 | 0.00 | 0.02 | 0.01 | 75 | 1015.8 |
| 20260506033526 | 61 | 300 | 2.0 | 4.0 | 0.00 | 0.02 | 0.01 | 74 | 1015.7 |
| 20260506033029 | 62 | 320 | 1.0 | 6.0 | 0.00 | 0.02 | 0.01 | 74 | 1015.6 |
| 20260506032530 | 62 | 321 | 2.0 | 6.0 | 0.00 | 0.02 | 0.01 | 74 | 1015.5 |
| 20260506032029 | 62 | 321 | 2.0 | 6.0 | 0.00 | 0.02 | 0.01 | 75 | 1015.5 |
| 20260506031530 | 62 | 330 | 2.0 | 6.0 | 0.00 | 0.02 | 0.01 | 75 | 1015.4 |
| 20260506031036 | 62 | 276 | 3.0 | 6.0 | 0.00 | 0.02 | 0.01 | 75 | 1015.4 |
| 20260506030523 | 62 | 254 | 3.0 | 8.0 | 0.00 | 0.02 | 0.01 | 75 | 1015.3 |
| 20260506030026 | 62 | 310 | 2.0 | 8.0 | 0.00 | 0.02 | 0.01 | 74 | 1015.2 |
| 20260506025534 | 62 | 322 | 2.0 | 7.0 | 0.00 | 0.02 | 0.01 | 74 | 1015.2 |
| 20260506025037 | 62 | 300 | 2.0 | 8.0 | 0.00 | 0.02 | 0.01 | 74 | 1015.1 |
| 20260506024523 | 62 | 323 | 3.0 | 8.0 | 0.00 | 0.02 | 0.01 | 73 | 1015.1 |
| 20260506024028 | 63 | 279 | 2.0 | 7.0 | 0.00 | 0.02 | 0.01 | 73 | 1015.0 |
| 20260506023551 | 63 | 313 | 4.0 | 7.0 | 0.00 | 0.02 | 0.01 | 74 | 1015.0 |
| 20260506023058 | 63 | 270 | 2.0 | 6.0 | 0.00 | 0.02 | 0.01 | 73 | 1014.9 |
| 20260506022525 | 63 | 308 | 3.0 | 8.0 | 0.00 | 0.02 | 0.01 | 73 | 1014.8 |
| 20260506022050 | 63 | 334 | 3.0 | 8.0 | 0.00 | 0.02 | 0.01 | 73 | 1014.8 |
| 20260506021531 | 63 | 17 | 4.0 | 7.0 | 0.00 | 0.02 | 0.01 | 73 | 1014.8 |
| 20260506021054 | 63 | 319 | 3.0 | 8.0 | 0.00 | 0.02 | 0.01 | 72 | 1014.7 |
| 20260506020558 | 63 | 327 | 3.0 | 8.0 | 0.00 | 0.02 | 0.01 | 72 | 1014.6 |
| 20260506020018 | 64 | 290 | 3.0 | 8.0 | 0.00 | 0.02 | 0.01 | 71 | 1014.6 |
| 20260506015523 | 64 | 250 | 4.0 | 9.0 | 0.00 | 0.02 | 0.01 | 71 | 1014.5 |
| 20260506015045 | 64 | 291 | 4.0 | 9.0 | 0.00 | 0.02 | 0.01 | 70 | 1014.5 |
| 20260506014525 | 64 | 317 | 5.0 | 9.0 | 0.00 | 0.02 | 0.01 | 69 | 1014.5 |
| 20260506014028 | 65 | 225 | 4.0 | 10.0 | 0.00 | 0.02 | 0.01 | 69 | 1014.4 |
| 20260506013534 | 65 | 254 | 4.0 | 10.0 | 0.00 | 0.02 | 0.01 | 68 | 1014.4 |
| 20260506013047 | 66 | 246 | 5.0 | 10.0 | 0.00 | 0.02 | 0.01 | 66 | 1014.3 |
| 20260506012555 | 66 | 269 | 4.0 | 10.0 | 0.00 | 0.02 | 0.01 | 67 | 1014.3 |
| 20260506012022 | 66 | 286 | 5.0 | 10.0 | 0.00 | 0.02 | 0.01 | 66 | 1014.2 |
| 20260506011524 | 66 | 275 | 5.0 | 10.0 | 0.00 | 0.02 | 0.01 | 65 | 1014.2 |
| 20260506011028 | 66 | 318 | 5.0 | 10.0 | 0.00 | 0.02 | 0.01 | 65 | 1014.1 |
| 20260506010531 | 66 | 273 | 4.0 | 10.0 | 0.00 | 0.02 | 0.01 | 65 | 1014.2 |
| 20260506010030 | 66 | 271 | 6.0 | 10.0 | 0.00 | 0.02 | 0.01 | 64 | 1014.2 |
| 20260506005540 | 66 | 293 | 4.0 | 9.0 | 0.00 | 0.02 | 0.01 | 63 | 1014.2 |
| 20260506005021 | 67 | 287 | 4.0 | 10.0 | 0.00 | 0.02 | 0.01 | 64 | 1014.2 |
| 20260506004521 | 67 | 285 | 5.0 | 11.0 | 0.00 | 0.02 | 0.01 | 64 | 1014.3 |
| 20260506004049 | 67 | 274 | 5.0 | 13.0 | 0.00 | 0.02 | 0.01 | 63 | 1014.3 |
| 20260506003530 | 67 | 289 | 5.0 | 13.0 | 0.00 | 0.02 | 0.01 | 63 | 1014.3 |
| 20260506003018 | 67 | 295 | 6.0 | 13.0 | 0.00 | 0.02 | 0.01 | 61 | 1014.3 |
| 20260506002542 | 67 | 324 | 5.0 | 11.0 | 0.00 | 0.02 | 0.01 | 62 | 1014.3 |
| 20260506002047 | 67 | 300 | 6.0 | 11.0 | 0.00 | 0.02 | 0.01 | 62 | 1014.4 |
| 20260506001527 | 67 | 236 | 6.0 | 11.0 | 0.00 | 0.02 | 0.01 | 61 | 1014.4 |
| 20260506001035 | 68 | 280 | 6.0 | 11.0 | 0.00 | 0.02 | 0.01 | 61 | 1014.4 |
| 20260506000539 | 68 | 284 | 5.0 | 12.0 | 0.00 | 0.02 | 0.01 | 59 | 1014.3 |
| 20260506000018 | 68 | 273 | 5.0 | 12.0 | 0.00 | 0.02 | 0.01 | 61 | 1014.3 |
| 20260505235525 | 68 | 276 | 6.0 | 12.0 | 0.00 | 0.02 | 0.01 | 62 | 1014.2 |
| 20260505235027 | 68 | 289 | 6.0 | 14.0 | 0.00 | 0.02 | 0.01 | 61 | 1014.3 |
| 20260505234529 | 68 | 304 | 6.0 | 14.0 | 0.00 | 0.02 | 0.01 | 63 | 1014.3 |
| 20260505234034 | 68 | 325 | 6.0 | 13.0 | 0.00 | 0.02 | 0.01 | 61 | 1014.2 |
| 20260505233521 | 69 | 323 | 6.0 | 11.0 | 0.00 | 0.02 | 0.01 | 59 | 1014.2 |
| 20260505233027 | 69 | 264 | 4.0 | 11.0 | 0.00 | 0.02 | 0.01 | 58 | 1014.3 |
| 20260505232535 | 69 | 308 | 6.0 | 11.0 | 0.00 | 0.02 | 0.01 | 59 | 1014.4 |
| 20260505232020 | 69 | 275 | 6.0 | 12.0 | 0.00 | 0.02 | 0.01 | 58 | 1014.4 |
| 20260505231522 | 70 | 266 | 6.0 | 12.0 | 0.00 | 0.02 | 0.01 | 58 | 1014.4 |
| 20260505231047 | 70 | 326 | 6.0 | 12.0 | 0.00 | 0.02 | 0.01 | 57 | 1014.3 |
| 20260505230531 | 70 | 315 | 5.0 | 11.0 | 0.00 | 0.02 | 0.01 | 57 | 1014.3 |
| 20260505230039 | 70 | 252 | 5.0 | 10.0 | 0.00 | 0.02 | 0.01 | 58 | 1014.4 |
| 20260505225543 | 70 | 305 | 5.0 | 11.0 | 0.00 | 0.02 | 0.01 | 59 | 1014.4 |
| 20260505225050 | 70 | 323 | 5.0 | 11.0 | 0.00 | 0.02 | 0.01 | 58 | 1014.4 |
| 20260505224555 | 70 | 298 | 7.0 | 12.0 | 0.00 | 0.02 | 0.01 | 57 | 1014.4 |
| 20260505224035 | 71 | 249 | 6.0 | 13.0 | 0.00 | 0.02 | 0.01 | 57 | 1014.4 |
| 20260505223538 | 71 | 281 | 7.0 | 13.0 | 0.00 | 0.02 | 0.01 | 56 | 1014.4 |
| 20260505223020 | 71 | 274 | 6.0 | 13.0 | 0.00 | 0.02 | 0.01 | 57 | 1014.5 |
| 20260505222523 | 71 | 259 | 6.0 | 12.0 | 0.00 | 0.02 | 0.01 | 55 | 1014.5 |
| 20260505222030 | 71 | 320 | 6.0 | 11.0 | 0.00 | 0.02 | 0.01 | 57 | 1014.5 |
| 20260505221532 | 71 | 271 | 4.0 | 13.0 | 0.00 | 0.02 | 0.01 | 57 | 1014.6 |
| 20260505221020 | 71 | 258 | 5.0 | 13.0 | 0.00 | 0.02 | 0.01 | 59 | 1014.6 |
| 20260505220520 | 71 | 271 | 5.0 | 13.0 | 0.00 | 0.02 | 0.01 | 59 | 1014.6 |
| 20260505220044 | 72 | 238 | 7.0 | 13.0 | 0.00 | 0.02 | 0.01 | 58 | 1014.7 |
| 20260505215523 | 72 | 250 | 6.0 | 13.0 | 0.00 | 0.02 | 0.01 | 58 | 1014.7 |
| 20260505215025 | 72 | 296 | 5.0 | 12.0 | 0.00 | 0.02 | 0.01 | 57 | 1014.7 |
| 20260505214527 | 71 | 263 | 5.0 | 12.0 | 0.00 | 0.02 | 0.01 | 56 | 1014.8 |
| 20260505214033 | 71 | 266 | 4.0 | 10.0 | 0.00 | 0.02 | 0.01 | 55 | 1014.8 |
| 20260505213536 | 71 | 315 | 5.0 | 10.0 | 0.00 | 0.02 | 0.01 | 56 | 1014.9 |
| 20260505213034 | 71 | 277 | 6.0 | 10.0 | 0.00 | 0.02 | 0.01 | 55 | 1014.9 |
| 20260505212542 | 71 | 344 | 6.0 | 10.0 | 0.00 | 0.02 | 0.01 | 56 | 1015.0 |
| 20260505212026 | 71 | 258 | 6.0 | 10.0 | 0.00 | 0.02 | 0.01 | 57 | 1015.0 |
| 20260505211528 | 71 | 267 | 5.0 | 9.0 | 0.00 | 0.02 | 0.01 | 57 | 1015.1 |
| 20260505211031 | 71 | 266 | 4.0 | 10.0 | 0.00 | 0.02 | 0.01 | 56 | 1015.0 |
| 20260505210530 | 71 | 246 | 5.0 | 10.0 | 0.00 | 0.02 | 0.01 | 58 | 1015.0 |
| 20260505210039 | 71 | 321 | 4.0 | 11.0 | 0.00 | 0.02 | 0.01 | 58 | 1015.1 |
| 20260505205525 | 71 | 246 | 5.0 | 11.0 | 0.00 | 0.02 | 0.01 | 56 | 1015.1 |
| 20260505205034 | 71 | 327 | 5.0 | 11.0 | 0.00 | 0.02 | 0.01 | 56 | 1015.1 |
| 20260505204557 | 71 | 292 | 5.0 | 11.0 | 0.00 | 0.02 | 0.01 | 56 | 1015.2 |
| 20260505204039 | 71 | 268 | 7.0 | 11.0 | 0.00 | 0.02 | 0.01 | 57 | 1015.1 |
| 20260505203520 | 71 | 278 | 6.0 | 12.0 | 0.00 | 0.02 | 0.01 | 57 | 1015.2 |
| 20260505203039 | 70 | 322 | 6.0 | 12.0 | 0.00 | 0.02 | 0.01 | 58 | 1015.2 |
| 20260505202519 | 70 | 284 | 6.0 | 11.0 | 0.00 | 0.02 | 0.01 | 57 | 1015.2 |
| 20260505202020 | 70 | 265 | 6.0 | 12.0 | 0.00 | 0.02 | 0.01 | 57 | 1015.2 |
| 20260505201524 | 70 | 288 | 5.0 | 12.0 | 0.00 | 0.02 | 0.01 | 57 | 1015.2 |
| 20260505201030 | 71 | 267 | 5.0 | 12.0 | 0.00 | 0.02 | 0.01 | 59 | 1015.2 |
| 20260505200535 | 71 | 240 | 5.0 | 11.0 | 0.00 | 0.02 | 0.01 | 58 | 1015.2 |
| 20260505200026 | 71 | 256 | 6.0 | 12.0 | 0.00 | 0.02 | 0.01 | 60 | 1015.3 |
| 20260505195528 | 71 | 286 | 5.0 | 12.0 | 0.00 | 0.02 | 0.01 | 60 | 1015.3 |
| 20260505195035 | 71 | 275 | 4.0 | 9.0 | 0.00 | 0.02 | 0.01 | 61 | 1015.3 |
| 20260505194539 | 70 | 246 | 5.0 | 10.0 | 0.00 | 0.02 | 0.01 | 61 | 1015.3 |
| 20260505194025 | 70 | 290 | 6.0 | 10.0 | 0.00 | 0.02 | 0.01 | 61 | 1015.3 |
| 20260505193530 | 70 | 254 | 4.0 | 10.0 | 0.00 | 0.02 | 0.01 | 62 | 1015.4 |
| 20260505193035 | 70 | 244 | 5.0 | 10.0 | 0.00 | 0.02 | 0.01 | 62 | 1015.4 |
| 20260505192537 | 69 | 265 | 5.0 | 10.0 | 0.00 | 0.02 | 0.01 | 61 | 1015.4 |
| 20260505192044 | 69 | 321 | 5.0 | 10.0 | 0.00 | 0.02 | 0.01 | 60 | 1015.4 |
| 20260505191527 | 70 | 257 | 5.0 | 13.0 | 0.00 | 0.02 | 0.01 | 60 | 1015.4 |
| 20260505191029 | 69 | 280 | 5.0 | 13.0 | 0.00 | 0.02 | 0.01 | 60 | 1015.4 |
| 20260505190527 | 70 | 238 | 6.0 | 11.0 | 0.00 | 0.02 | 0.01 | 59 | 1015.4 |
| 20260505190043 | 70 | 244 | 5.0 | 11.0 | 0.00 | 0.02 | 0.01 | 59 | 1015.4 |
| 20260505185531 | 69 | 258 | 5.0 | 11.0 | 0.00 | 0.02 | 0.01 | 59 | 1015.5 |
| 20260505185036 | 69 | 259 | 5.0 | 11.0 | 0.00 | 0.02 | 0.01 | 58 | 1015.5 |
| 20260505184548 | 69 | 267 | 5.0 | 11.0 | 0.00 | 0.02 | 0.01 | 60 | 1015.4 |
| 20260505184027 | 69 | 261 | 4.0 | 11.0 | 0.00 | 0.02 | 0.01 | 61 | 1015.5 |
| 20260505183529 | 68 | 273 | 6.0 | 11.0 | 0.00 | 0.02 | 0.01 | 65 | 1015.4 |
| 20260505183029 | 68 | 273 | 5.0 | 10.0 | 0.00 | 0.02 | 0.01 | 64 | 1015.4 |
| 20260505182534 | 68 | 290 | 6.0 | 10.0 | 0.00 | 0.02 | 0.01 | 65 | 1015.5 |
| 20260505182024 | 68 | 290 | 4.0 | 11.0 | 0.00 | 0.02 | 0.01 | 65 | 1015.5 |
| 20260505181527 | 68 | 277 | 5.0 | 11.0 | 0.00 | 0.02 | 0.01 | 65 | 1015.5 |
| 20260505181031 | 68 | 280 | 4.0 | 8.0 | 0.00 | 0.02 | 0.01 | 64 | 1015.5 |
| 20260505180520 | 68 | 307 | 3.0 | 11.0 | 0.00 | 0.02 | 0.01 | 65 | 1015.4 |
| 20260505180025 | 68 | 248 | 4.0 | 11.0 | 0.00 | 0.02 | 0.01 | 64 | 1015.4 |
| 20260505175529 | 68 | 271 | 4.0 | 9.0 | 0.00 | 0.02 | 0.01 | 65 | 1015.3 |
| 20260505175055 | 68 | 274 | 5.0 | 9.0 | 0.00 | 0.02 | 0.01 | 66 | 1015.2 |
| 20260505174527 | 68 | 261 | 4.0 | 8.0 | 0.00 | 0.02 | 0.01 | 68 | 1015.1 |
| 20260505174028 | 67 | 254 | 3.0 | 8.0 | 0.00 | 0.02 | 0.01 | 69 | 1015.1 |
| 20260505173532 | 66 | 263 | 3.0 | 10.0 | 0.00 | 0.02 | 0.01 | 68 | 1015.0 |
| 20260505173025 | 66 | 286 | 3.0 | 10.0 | 0.00 | 0.02 | 0.01 | 69 | 1015.0 |
| 20260505172524 | 67 | 253 | 3.0 | 9.0 | 0.00 | 0.02 | 0.01 | 68 | 1014.9 |
| 20260505172025 | 67 | 302 | 3.0 | 8.0 | 0.00 | 0.02 | 0.01 | 69 | 1015.0 |
| 20260505171549 | 66 | 267 | 3.0 | 9.0 | 0.00 | 0.02 | 0.01 | 69 | 1014.9 |
| 20260505171028 | 66 | 269 | 3.0 | 10.0 | 0.00 | 0.02 | 0.01 | 71 | 1014.9 |
| 20260505170538 | 65 | 249 | 3.0 | 10.0 | 0.00 | 0.03 | 0.01 | 72 | 1014.8 |
| 20260505170055 | 64 | 256 | 5.0 | 10.0 | 0.00 | 0.03 | 0.01 | 71 | 1014.8 |
| 20260505165559 | 63 | 311 | 3.0 | 9.0 | 0.00 | 0.03 | 0.01 | 73 | 1014.7 |
| 20260505165021 | 63 | 288 | 4.0 | 7.0 | 0.00 | 0.03 | 0.01 | 74 | 1014.7 |
| 20260505164523 | 63 | 275 | 2.0 | 7.0 | 0.00 | 0.03 | 0.01 | 77 | 1014.7 |
| 20260505164025 | 63 | 279 | 3.0 | 6.0 | 0.00 | 0.03 | 0.01 | 76 | 1014.6 |
| 20260505163530 | 64 | 300 | 1.0 | 6.0 | 0.00 | 0.03 | 0.01 | 77 | 1014.6 |
| 20260505163023 | 63 | 303 | 2.0 | 6.0 | 0.00 | 0.03 | 0.01 | 77 | 1014.5 |
| 20260505162529 | 63 | 309 | 2.0 | 6.0 | 0.00 | 0.03 | 0.01 | 77 | 1014.5 |
| 20260505162034 | 63 | 319 | 3.0 | 6.0 | 0.00 | 0.03 | 0.01 | 77 | 1014.4 |
| 20260505161555 | 63 | 265 | 3.0 | 7.0 | 0.00 | 0.03 | 0.01 | 77 | 1014.5 |
| 20260505161040 | 63 | 288 | 4.0 | 7.0 | 0.00 | 0.03 | 0.01 | 76 | 1014.4 |
| 20260505160522 | 62 | 312 | 2.0 | 7.0 | 0.00 | 0.03 | 0.01 | 77 | 1014.2 |
| 20260505153019 | 62 | 283 | 1.0 | 6.0 | 0.00 | 0.03 | 0.01 | 82 | 1014.1 |
| 20260505152522 | 62 | 346 | 2.0 | 7.0 | 0.00 | 0.03 | 0.01 | 82 | 1014.1 |
| 20260505152025 | 61 | 350 | 1.0 | 8.0 | 0.00 | 0.03 | 0.01 | 83 | 1014.1 |
| 20260505151531 | 61 | 317 | 3.0 | 8.0 | 0.00 | 0.03 | 0.01 | 84 | 1014.1 |
| 20260505151022 | 61 | 321 | 2.0 | 7.0 | 0.00 | 0.03 | 0.01 | 84 | 1014.0 |
| 20260505150520 | 61 | 293 | 3.0 | 7.0 | 0.00 | 0.03 | 0.01 | 84 | 1014.0 |
| 20260505140524 | 58 | 40 | 2.0 | 5.0 | 0.01 | 0.03 | 0.01 | 90 | 1013.6 |
| 20260505125030 | 57 | 337 | 1.0 | 5.0 | 0.00 | 0.02 | 0.00 | 91 | 1012.9 |
| 20260505124536 | 57 | 13 | 2.0 | 6.0 | 0.00 | 0.02 | 0.00 | 91 | 1012.9 |
| 20260505124059 | 57 | 23 | 2.0 | 8.0 | 0.00 | 0.02 | 0.00 | 91 | 1012.9 |
| 20260505123524 | 58 | 39 | 2.0 | 8.0 | 0.00 | 0.02 | 0.00 | 91 | 1012.9 |
| 20260505123024 | 58 | 34 | 3.0 | 6.0 | 0.00 | 0.02 | 0.00 | 91 | 1012.9 |
| 20260505122530 | 58 | 37 | 3.0 | 6.0 | 0.00 | 0.02 | 0.00 | 91 | 1012.9 |
| 20260505122038 | 58 | 44 | 3.0 | 7.0 | 0.00 | 0.02 | 0.00 | 91 | 1012.9 |
| 20260505121519 | 58 | 40 | 5.0 | 7.0 | 0.00 | 0.02 | 0.00 | 91 | 1012.8 |
| 20260505121043 | 58 | 355 | 3.0 | 5.0 | 0.00 | 0.02 | 0.00 | 91 | 1012.8 |
| 20260505120525 | 58 | 53 | 2.0 | 4.0 | 0.00 | 0.02 | 0.00 | 91 | 1012.8 |
| 20260505120034 | 58 | 33 | 2.0 | 5.0 | 0.00 | 0.02 | 0.00 | 91 | 1012.9 |
| 20260505115522 | 58 | 32 | 2.0 | 7.0 | 0.00 | 0.02 | 0.00 | 91 | 1012.8 |
| 20260505115031 | 58 | 34 | 3.0 | 7.0 | 0.00 | 0.02 | 0.00 | 90 | 1012.9 |
| 20260505114531 | 59 | 44 | 1.0 | 5.0 | 0.00 | 0.02 | 0.00 | 90 | 1012.9 |
| 20260505114039 | 59 | 44 | 2.0 | 6.0 | 0.00 | 0.02 | 0.00 | 90 | 1012.9 |
| 20260505113523 | 59 | 44 | 4.0 | 6.0 | 0.00 | 0.02 | 0.00 | 90 | 1012.8 |
| 20260505113029 | 59 | 38 | 3.0 | 5.0 | 0.00 | 0.02 | 0.00 | 90 | 1012.9 |
| 20260505112537 | 59 | 40 | 2.0 | 4.0 | 0.00 | 0.02 | 0.00 | 90 | 1012.8 |
| 20260505112020 | 59 | 40 | 2.0 | 6.0 | 0.00 | 0.02 | 0.00 | 90 | 1012.8 |
| 20260505111526 | 59 | 40 | 2.0 | 6.0 | 0.00 | 0.02 | 0.00 | 89 | 1012.9 |
| 20260505111028 | 59 | 26 | 2.0 | 6.0 | 0.00 | 0.02 | 0.00 | 89 | 1012.9 |
| 20260505110533 | 59 | 355 | 2.0 | 5.0 | 0.00 | 0.02 | 0.00 | 89 | 1012.9 |
| 20260505102058 | 59 | 252 | 2.0 | 7.0 | 0.00 | 0.02 | 0.00 | 89 | 1013.0 |
| 20260505101523 | 59 | 299 | 3.0 | 7.0 | 0.00 | 0.02 | 0.00 | 89 | 1013.0 |
| 20260505101025 | 59 | 325 | 4.0 | 7.0 | 0.00 | 0.02 | 0.00 | 88 | 1013.0 |
| 20260505100530 | 59 | 277 | 2.0 | 7.0 | 0.00 | 0.02 | 0.00 | 89 | 1013.0 |
| 20260505100038 | 59 | 266 | 3.0 | 7.0 | 0.00 | 0.02 | 0.00 | 88 | 1013.0 |
| 20260505095522 | 59 | 254 | 2.0 | 9.0 | 0.00 | 0.02 | 0.00 | 88 | 1013.0 |
| 20260505095023 | 59 | 239 | 4.0 | 9.0 | 0.00 | 0.02 | 0.00 | 87 | 1013.1 |
| 20260505094533 | 59 | 269 | 2.0 | 5.0 | 0.00 | 0.02 | 0.00 | 86 | 1013.0 |
| 20260505094021 | 59 | 304 | 1.0 | 3.0 | 0.00 | 0.02 | 0.00 | 87 | 1013.1 |
| 20260505093550 | 59 | 313 | 0.0 | 2.0 | 0.00 | 0.02 | 0.00 | 87 | 1013.0 |
| 20260505093033 | 59 | 313 | 1.0 | 2.0 | 0.00 | 0.02 | 0.00 | 87 | 1013.1 |
| 20260505092538 | 59 | 313 | 0.0 | 1.0 | 0.00 | 0.02 | 0.00 | 87 | 1013.1 |
| 20260505092022 | 59 | 313 | 0.0 | 2.0 | 0.00 | 0.02 | 0.00 | 86 | 1013.2 |
| 20260505091525 | 59 | 313 | 0.0 | 2.0 | 0.00 | 0.02 | 0.00 | 86 | 1013.3 |
| 20260505091029 | 59 | 313 | 0.0 | 6.0 | 0.00 | 0.02 | 0.00 | 85 | 1013.3 |
| 20260505090532 | 59 | 313 | 2.0 | 8.0 | 0.00 | 0.02 | 0.00 | 84 | 1013.4 |
| 20260505090019 | 59 | 306 | 3.0 | 8.0 | 0.00 | 0.02 | 0.00 | 84 | 1013.4 |
| 20260505085546 | 60 | 346 | 5.0 | 7.0 | 0.00 | 0.02 | 0.00 | 84 | 1013.4 |
| 20260505085056 | 59 | 313 | 0.0 | 4.0 | 0.00 | 0.02 | 0.00 | 85 | 1013.4 |